VJT13 GCLA-LPMA

Flight info

Callsign VJT13
Flight time N/A
Altitude 6000
Route BIMBO DCT EKNOT
Aircraft C208/L-SDFGR/C

Departure

Time 2026-04-27 12:05
Airport La Palma Airport (GCLA)

Arrival

Time N/A
Airport Cristiano Ronaldo International Airport (LPMA)
Time Latitude Longitude Altitude Speed Heading
2026-04-27 12:00 28.62196 -17.75360 99 ft 8 kts 216°
2026-04-27 12:00 28.62138 -17.75413 109 ft 13 kts 216°
2026-04-27 12:00 28.62029 -17.75439 113 ft 21 kts 176°
2026-04-27 12:01 28.61941 -17.75430 110 ft 4 kts 276°
2026-04-27 12:01 28.61943 -17.75436 110 ft 0 kts 299°
2026-04-27 12:02 28.61945 -17.75438 111 ft 2 kts 325°
2026-04-27 12:02 28.62020 -17.75437 113 ft 18 kts
2026-04-27 12:03 28.62080 -17.75516 122 ft 12 kts 253°
2026-04-27 12:03 28.61967 -17.75543 125 ft 26 kts 179°
2026-04-27 12:03 28.61758 -17.75555 118 ft 30 kts 194°
2026-04-27 12:03 28.61683 -17.75543 113 ft 13 kts 21°
2026-04-27 12:04 28.61817 -17.75544 119 ft 39 kts 357°
2026-04-27 12:04 28.62275 -17.75546 120 ft 87 kts 358°
2026-04-27 12:04 28.62885 -17.75496 326 ft 91 kts
2026-04-27 12:04 28.63570 -17.75443 434 ft 102 kts
2026-04-27 12:05 28.64271 -17.75398 661 ft 94 kts
2026-04-27 12:05 28.64779 -17.74975 1043 ft 99 kts 58°
2026-04-27 12:05 28.64890 -17.74203 1425 ft 102 kts 82°
2026-04-27 12:05 28.64914 -17.73344 1692 ft 113 kts 80°
2026-04-27 12:06 28.64938 -17.72424 1949 ft 120 kts 82°
2026-04-27 12:06 28.64964 -17.71461 2203 ft 123 kts 83°
2026-04-27 12:06 28.64979 -17.70485 2448 ft 126 kts 82°
2026-04-27 12:06 28.64993 -17.69494 2701 ft 126 kts 83°
2026-04-27 12:07 28.65266 -17.68584 2946 ft 120 kts 51°
2026-04-27 12:07 28.65737 -17.67803 3194 ft 120 kts 48°
2026-04-27 12:07 28.66252 -17.67046 3447 ft 119 kts 48°
2026-04-27 12:07 28.66784 -17.66296 3697 ft 119 kts 47°
2026-04-27 12:08 28.67309 -17.65559 3946 ft 119 kts 46°
2026-04-27 12:08 28.67845 -17.64825 4213 ft 117 kts 47°
2026-04-27 12:08 28.68379 -17.64103 4459 ft 117 kts 45°
2026-04-27 12:08 28.68922 -17.63391 4722 ft 116 kts 46°
2026-04-27 12:09 28.69461 -17.62687 4984 ft 115 kts 47°
2026-04-27 12:09 28.69987 -17.62004 5220 ft 110 kts 48°
2026-04-27 12:09 28.70493 -17.61341 5468 ft 108 kts 48°
2026-04-27 12:09 28.70977 -17.60682 5716 ft 107 kts 49°
2026-04-27 12:10 28.71456 -17.60020 5967 ft 106 kts 49°
2026-04-27 12:10 28.71933 -17.59358 6219 ft 105 kts 50°
2026-04-27 12:10 28.72400 -17.58715 6468 ft 104 kts 49°
2026-04-27 12:10 28.72862 -17.58066 6719 ft 103 kts 50°
2026-04-27 12:11 28.73318 -17.57438 6965 ft 102 kts 48°
2026-04-27 12:11 28.73764 -17.56816 7212 ft 101 kts 49°
2026-04-27 12:11 28.74209 -17.56203 7459 ft 99 kts 50°
2026-04-27 12:11 28.74639 -17.55604 7702 ft 98 kts 49°
2026-04-27 12:12 28.75068 -17.55008 7948 ft 96 kts 48°
2026-04-27 12:12 28.75491 -17.54424 8191 ft 95 kts 50°
2026-04-27 12:12 28.75905 -17.53849 8436 ft 93 kts 50°
2026-04-27 12:12 28.76308 -17.53292 8678 ft 91 kts 50°
2026-04-27 12:13 28.76708 -17.52742 8921 ft 89 kts 50°
2026-04-27 12:13 28.77093 -17.52201 9163 ft 87 kts 50°
2026-04-27 12:13 28.77475 -17.51675 9403 ft 85 kts 50°
2026-04-27 12:13 28.77839 -17.51162 9644 ft 82 kts 50°
2026-04-27 12:14 28.78195 -17.50662 9887 ft 79 kts 49°
2026-04-27 12:14 28.78562 -17.50147 9990 ft 92 kts 49°
2026-04-27 12:14 28.79014 -17.49524 10003 ft 110 kts 49°
2026-04-27 12:14 28.79534 -17.48806 10000 ft 124 kts 49°
2026-04-27 12:15 28.80104 -17.48021 9996 ft 133 kts 49°
2026-04-27 12:15 28.80706 -17.47189 9995 ft 138 kts 49°
2026-04-27 12:15 28.81327 -17.46325 9994 ft 142 kts 49°
2026-04-27 12:15 28.81962 -17.45443 9992 ft 144 kts 49°
2026-04-27 12:16 28.82595 -17.44563 9992 ft 145 kts 49°
2026-04-27 12:16 28.83240 -17.43670 9992 ft 146 kts 50°
2026-04-27 12:16 28.83890 -17.42769 9991 ft 147 kts 50°
2026-04-27 12:16 28.84534 -17.41870 9992 ft 147 kts 49°
2026-04-27 12:17 28.85187 -17.40960 9991 ft 148 kts 49°
2026-04-27 12:17 28.85837 -17.40060 9991 ft 148 kts 49°
2026-04-27 12:17 28.86487 -17.39156 9991 ft 148 kts 49°
2026-04-27 12:17 28.87148 -17.38238 9992 ft 148 kts 49°
2026-04-27 12:18 28.87797 -17.37337 9991 ft 148 kts 50°
2026-04-27 12:18 28.88454 -17.36422 9991 ft 148 kts 50°
2026-04-27 12:18 28.89101 -17.35522 9991 ft 148 kts 49°
2026-04-27 12:18 28.89763 -17.34600 9991 ft 148 kts 50°
2026-04-27 12:19 28.90415 -17.33691 9992 ft 148 kts 50°
2026-04-27 12:19 28.91068 -17.32785 9992 ft 148 kts 50°
2026-04-27 12:19 28.91720 -17.31875 9992 ft 148 kts 50°
2026-04-27 12:19 28.92377 -17.30962 9992 ft 148 kts 50°
2026-04-27 12:20 28.93030 -17.30051 9992 ft 148 kts 50°
2026-04-27 12:20 28.93682 -17.29138 9992 ft 148 kts 50°
2026-04-27 12:20 28.94339 -17.28225 9991 ft 149 kts 50°
2026-04-27 12:20 28.94998 -17.27307 9993 ft 149 kts 49°
2026-04-27 12:21 28.95653 -17.26393 9992 ft 149 kts 50°
2026-04-27 12:21 28.96308 -17.25480 9992 ft 149 kts 50°
2026-04-27 12:21 28.96957 -17.24577 9992 ft 148 kts 50°
2026-04-27 12:21 28.97615 -17.23656 9992 ft 149 kts 50°
2026-04-27 12:22 28.98266 -17.22747 9992 ft 149 kts 50°
2026-04-27 12:22 28.98921 -17.21834 9992 ft 149 kts 50°
2026-04-27 12:22 28.99579 -17.20911 9991 ft 149 kts 50°
2026-04-27 12:22 29.00240 -17.19990 9993 ft 149 kts 49°
2026-04-27 12:23 29.00876 -17.19105 9988 ft 141 kts 49°
2026-04-27 12:23 29.01481 -17.18264 9989 ft 135 kts 50°
2026-04-27 12:23 29.02074 -17.17437 9990 ft 132 kts 50°
2026-04-27 12:23 29.02643 -17.16641 9991 ft 129 kts 49°
2026-04-27 12:24 29.03214 -17.15844 9991 ft 128 kts 49°
2026-04-27 12:24 29.03773 -17.15066 9990 ft 127 kts 49°
2026-04-27 12:24 29.04335 -17.14281 9991 ft 126 kts 49°
2026-04-27 12:24 29.04886 -17.13510 9992 ft 125 kts 49°
2026-04-27 12:25 29.05437 -17.12742 9992 ft 125 kts 50°
2026-04-27 12:25 29.05992 -17.11964 9991 ft 125 kts 49°
2026-04-27 12:25 29.06537 -17.11201 9991 ft 125 kts 49°
2026-04-27 12:25 29.07087 -17.10431 9991 ft 124 kts 49°
2026-04-27 12:26 29.07637 -17.09661 9991 ft 125 kts 49°
2026-04-27 12:26 29.08182 -17.08899 9992 ft 124 kts 49°
2026-04-27 12:26 29.08735 -17.08127 9992 ft 125 kts 49°
2026-04-27 12:26 29.09285 -17.07352 9992 ft 125 kts 49°
2026-04-27 12:27 29.09832 -17.06587 9991 ft 125 kts 49°
2026-04-27 12:27 29.10376 -17.05823 9993 ft 125 kts 49°
2026-04-27 12:27 29.10928 -17.05049 9993 ft 125 kts 49°
2026-04-27 12:27 29.11479 -17.04275 9994 ft 125 kts 49°
2026-04-27 12:28 29.12031 -17.03502 9994 ft 125 kts 49°
2026-04-27 12:28 29.12576 -17.02738 9993 ft 125 kts 49°
2026-04-27 12:28 29.13131 -17.01960 9992 ft 125 kts 49°
2026-04-27 12:28 29.13682 -17.01188 9991 ft 125 kts 49°
2026-04-27 12:29 29.14234 -17.00411 9990 ft 125 kts 49°
2026-04-27 12:29 29.14785 -16.99638 9989 ft 126 kts 49°
2026-04-27 12:29 29.15339 -16.98859 9987 ft 126 kts 49°
2026-04-27 12:29 29.15889 -16.98088 9988 ft 125 kts 49°
2026-04-27 12:30 29.16445 -16.97305 9988 ft 129 kts 50°
2026-04-27 12:30 29.17024 -16.96486 9988 ft 134 kts 50°
2026-04-27 12:30 29.17611 -16.95659 9987 ft 137 kts 50°
2026-04-27 12:30 29.18221 -16.94796 9985 ft 142 kts 49°
2026-04-27 12:31 29.18859 -16.93914 9984 ft 145 kts 49°
2026-04-27 12:31 29.19510 -16.93009 9982 ft 147 kts 49°
2026-04-27 12:31 29.20161 -16.92102 9981 ft 148 kts 49°
2026-04-27 12:31 29.20817 -16.91190 9980 ft 149 kts 49°
2026-04-27 12:32 29.21474 -16.90271 9979 ft 148 kts 48°
2026-04-27 12:32 29.22118 -16.89375 9974 ft 140 kts 48°
2026-04-27 12:32 29.22724 -16.88527 9973 ft 135 kts 48°
2026-04-27 12:32 29.23308 -16.87708 9973 ft 131 kts 49°
2026-04-27 12:33 29.23881 -16.86903 9974 ft 129 kts 49°
2026-04-27 12:33 29.24442 -16.86113 9972 ft 127 kts 49°
2026-04-27 12:33 29.24996 -16.85332 9970 ft 126 kts 49°
2026-04-27 12:33 29.25548 -16.84553 9972 ft 125 kts 48°
2026-04-27 12:34 29.26100 -16.83777 9971 ft 125 kts 48°
2026-04-27 12:34 29.26645 -16.83011 9970 ft 124 kts 49°
2026-04-27 12:34 29.27195 -16.82237 9969 ft 124 kts 49°
2026-04-27 12:34 29.27736 -16.81473 9970 ft 124 kts 49°
2026-04-27 12:35 29.28282 -16.80702 9967 ft 124 kts 48°
2026-04-27 12:35 29.28823 -16.79940 9967 ft 124 kts 48°
2026-04-27 12:35 29.29365 -16.79175 9965 ft 124 kts 48°
2026-04-27 12:35 29.29907 -16.78408 9965 ft 124 kts 48°
2026-04-27 12:36 29.30455 -16.77635 9966 ft 123 kts 48°
2026-04-27 12:36 29.30995 -16.76875 9966 ft 123 kts 48°
2026-04-27 12:36 29.31535 -16.76112 9965 ft 124 kts 48°
2026-04-27 12:36 29.32077 -16.75347 9965 ft 123 kts 49°
2026-04-27 12:37 29.32624 -16.74577 9965 ft 123 kts 48°
2026-04-27 12:37 29.33160 -16.73818 9965 ft 123 kts 48°
2026-04-27 12:37 29.33702 -16.73051 9966 ft 123 kts 48°
2026-04-27 12:37 29.34240 -16.72288 9965 ft 123 kts 48°
2026-04-27 12:38 29.34781 -16.71523 9966 ft 123 kts 48°
2026-04-27 12:38 29.35321 -16.70763 9966 ft 123 kts 48°
2026-04-27 12:38 29.35864 -16.69994 9966 ft 123 kts 48°
2026-04-27 12:38 29.36410 -16.69223 9965 ft 123 kts 48°
2026-04-27 12:39 29.36945 -16.68464 9965 ft 123 kts 48°
2026-04-27 12:39 29.37485 -16.67698 9965 ft 123 kts 48°
2026-04-27 12:39 29.38077 -16.66984 9968 ft 122 kts 28°
2026-04-27 12:39 29.38854 -16.66630 9968 ft 123 kts 18°
2026-04-27 12:40 29.39720 -16.66313 9973 ft 135 kts 17°
2026-04-27 12:40 29.40644 -16.65994 9969 ft 143 kts 16°
2026-04-27 12:40 29.41623 -16.65652 9967 ft 148 kts 17°
2026-04-27 12:40 29.42612 -16.65295 9966 ft 151 kts 17°
2026-04-27 12:41 29.43616 -16.64932 9966 ft 152 kts 17°
2026-04-27 12:41 29.49194 -16.63101 9974 ft 153 kts 14°
2026-04-27 12:41 29.57488 -16.60576 9962 ft 154 kts 14°
2026-04-27 12:41 29.60760 -16.59589 9960 ft 154 kts 14°